Location: Pitton
(51.0667°N, 1.7000°W)
Time: 05:34:50
(UTC+00:00)

Cosmos 2082 - Pass Details

Date: 17 September 2019
Orbit: 834 x 855 km, 71.0° (Epoch: 22 October)

Event Time Altitude Azimuth Distance (km) Brightness Sun altitude
Exits shadow 20:50:39 45° 84° (E) 1,154 4.0 -23.2°
Drops below altitude 10° 20:55:18 10° 38° (NE) 2,494 6.1 -23.8°
Sets 20:57:49 0° 33° (NNE) 3,433 6.9 -24.1°
